QPF
0.00 0.00 0.00 0.00 0.00 0.00 0.00 0.00 0.00 0.00 0.00 0.00 0.00 0.00 0.00 0.00 0.01 0.02 0.02 0.02 0.03 0.05 0.11 0.25 0.42 0.67 1.03 1.34 1.68 2.10 2.49 2.51 2.13 1.61 1.23 0.92 0.58 0.34 0.19 0.10 0.07 0.07 0.04 0.02
0.00 0.00 0.00 0.00 0.00 0.00 0.00 0.00 0.00 0.00 0.00 0.00 0.00 0.00 0.00 0.00 0.01 0.01 0.02 0.02 0.03 0.06 0.14 0.30 0.47 0.70 0.94 1.16 1.36 1.60 1.53 1.30 1.07 0.86 0.75 0.47 0.29 0.20 0.12 0.08 0.07 0.04 0.03 0.01
0.00 0.00 0.00 0.00 0.00 0.00 0.00 0.00 0.00 0.00 0.00 0.00 0.00 0.00 0.01 0.01 0.02 0.02 0.03 0.04 0.05 0.10 0.15 0.25 0.43 0.58 0.61 0.70 0.78 0.83 0.72 0.54 0.47 0.42 0.34 0.28 0.23 0.14 0.07 0.04 0.05 0.04 0.03 0.02
0.00 0.00 0.00 0.00 0.00 0.00 0.00 0.00 0.00 0.00 0.00 0.00 0.00 0.00 0.02 0.03 0.03 0.04 0.05 0.07 0.08 0.09 0.11 0.16 0.22 0.26 0.28 0.36 0.36 0.35 0.30 0.22 0.20 0.18 0.14 0.14 0.12 0.09 0.06 0.05 0.05 0.07 0.06 0.05
0.00 0.00 0.00 0.00 0.00 0.00 0.00 0.00 0.00 0.00 0.00 0.00 0.00 0.01 0.02 0.05 0.07 0.08 0.09 0.09 0.08 0.06 0.05 0.06 0.08 0.10 0.08 0.13 0.15 0.16 0.19 0.17 0.16 0.16 0.15 0.13 0.11 0.09 0.07 0.06 0.07 0.09 0.14 0.12
0.01 0.01 0.01 0.00 0.00 0.00 0.00 0.00 0.00 0.00 0.01 0.02 0.03 0.04 0.05 0.12 0.20 0.19 0.18 0.15 0.09 0.06 0.04 0.02 0.02 0.02 0.03 0.04 0.07 0.14 0.17 0.14 0.14 0.16 0.16 0.13 0.10 0.10 0.09 0.10 0.11 0.10 0.10 0.10
0.03 0.02 0.01 0.00 0.00 0.00 0.00 0.00 0.00 0.00 0.01 0.03 0.04 0.05 0.11 0.26 0.36 0.38 0.31 0.22 0.14 0.07 0.03 0.01 0.01 0.01 0.02 0.02 0.03 0.06 0.09 0.12 0.12 0.11 0.12 0.10 0.09 0.10 0.10 0.10 0.09 0.09 0.09 0.09
0.03 0.03 0.01 0.01 0.01 0.01 0.01 0.00 0.00 0.00 0.00 0.01 0.03 0.07 0.19 0.33 0.37 0.34 0.25 0.20 0.15 0.07 0.03 0.01 0.01 0.01 0.01 0.01 0.01 0.02 0.03 0.03 0.04 0.05 0.05 0.05 0.06 0.07 0.08 0.08 0.08 0.08 0.08 0.08
0.00 0.01 0.00 0.01 0.02 0.02 0.02 0.01 0.01 0.01 0.01 0.01 0.05 0.12 0.19 0.23 0.26 0.25 0.18 0.11 0.08 0.06 0.04 0.02 0.00 0.00 0.00 0.00 0.00 0.00 0.01 0.01 0.01 0.01 0.01 0.02 0.02 0.03 0.04 0.05 0.05 0.05 0.06 0.07
0.00 0.00 0.00 0.01 0.02 0.03 0.03 0.02 0.01 0.01 0.02 0.02 0.03 0.12 0.17 0.18 0.18 0.21 0.17 0.10 0.06 0.05 0.02 0.01 0.00 0.00 0.00 0.00 0.00 0.00 0.00 0.00 0.00 0.00 0.00 0.00 0.00 0.01 0.01 0.01 0.01 0.02 0.03 0.04
0.00 0.00 0.00 0.01 0.02 0.04 0.04 0.04 0.04 0.03 0.03 0.04 0.04 0.10 0.12 0.12 0.13 0.14 0.12 0.09 0.09 0.05 0.02 0.00 0.00 0.00 0.00 0.00 0.00 0.00 0.00 0.00 0.00 0.00 0.00 0.00 0.00 0.00 0.00 0.00 0.00 0.00 0.01 0.01
0.00 0.00 0.00 0.01 0.04 0.05 0.05 0.05 0.05 0.04 0.03 0.04 0.05 0.09 0.05 0.05 0.06 0.05 0.05 0.04 0.03 0.01 0.00 0.00 0.00 0.00 0.00 0.00 0.00 0.00 0.00 0.00 0.00 0.00 0.00 0.00 0.00 0.00 0.00 0.00 0.00 0.00 0.00 0.00
0.00 0.00 0.01 0.01 0.03 0.06 0.06 0.05 0.05 0.04 0.03 0.03 0.05 0.06 0.03 0.02 0.02 0.02 0.02 0.01 0.00 0.00 0.00 0.00 0.00 0.00 0.00 0.00 0.00 0.00 0.00 0.00 0.00 0.00 0.00 0.00 0.00 0.00 0.00 0.00 0.00 0.00 0.00 0.00
0.00 0.01 0.01 0.02 0.01 0.03 0.04 0.05 0.05 0.04 0.03 0.03 0.03 0.04 0.02 0.02 0.01 0.01 0.01 0.00 0.00 0.00 0.00 0.00 0.00 0.00 0.00 0.00 0.00 0.00 0.00 0.00 0.00 0.00 0.00 0.00 0.00 0.00 0.00 0.00 0.00 0.00 0.00 0.00
0.00 0.00 0.00 0.00 0.00 0.02 0.03 0.05 0.05 0.03 0.02 0.01 0.01 0.01 0.01 0.01 0.01 0.00 0.00 0.00 0.00 0.00 0.00 0.00 0.00 0.00 0.00 0.00 0.00 0.00 0.00 0.00 0.00 0.00 0.00 0.00 0.00 0.00 0.00 0.00 0.00 0.00 0.00 0.00
0.00 0.00 0.00 0.00 0.00 0.01 0.02 0.06 0.05 0.02 0.01 0.00 0.00 0.00 0.00 0.00 0.00 0.00 0.00 0.00 0.00 0.00 0.00 0.00 0.00 0.00 0.00 0.00 0.00 0.00 0.00 0.00 0.00 0.00 0.00 0.00 0.00 0.00 0.00 0.00 0.00 0.01 0.01 0.01
0.00 0.00 0.00 0.00 0.00 0.00 0.02 0.04 0.02 0.00 0.00 0.00 0.00 0.00 0.00 0.00 0.00 0.00 0.00 0.00 0.00 0.00 0.00 0.00 0.00 0.00 0.00 0.00 0.00 0.00 0.00 0.00 0.00 0.00 0.00 0.00 0.00 0.00 0.00 0.00 0.01 0.01 0.01 0.01
0.00 0.00 0.00 0.00 0.00 0.02 0.01 0.00 0.00 0.00 0.00 0.00 0.00 0.00 0.00 0.00 0.00 0.00 0.00 0.00 0.00 0.00 0.00 0.00 0.00 0.00 0.00 0.00 0.00 0.00 0.00 0.00 0.00 0.00 0.00 0.00 0.00 0.00 0.00 0.01 0.01 0.01 0.01 0.01
0.00 0.00 0.00 0.00 0.00 0.01 0.01 0.00 0.00 0.00 0.00 0.00 0.00 0.00 0.00 0.00 0.00 0.00 0.00 0.00 0.00 0.00 0.00 0.00 0.00 0.00 0.00 0.00 0.00 0.00 0.00 0.00 0.00 0.00 0.00 0.01 0.01 0.01 0.01 0.01 0.01 0.01 0.01 0.01
0.00 0.00 0.00 0.00 0.00 0.00 0.00 0.00 0.00 0.00 0.00 0.00 0.00 0.00 0.00 0.00 0.00 0.00 0.00 0.00 0.00 0.00 0.00 0.00 0.00 0.00 0.00 0.00 0.00 0.00 0.01 0.01 0.01 0.01 0.02 0.02 0.02 0.02 0.01 0.01 0.01 0.01 0.01 0.01
0.00 0.00 0.00 0.00 0.00 0.00 0.00 0.00 0.00 0.00 0.00 0.00 0.00 0.00 0.00 0.00 0.00 0.00 0.00 0.00 0.00 0.00 0.00 0.00 0.00 0.00 0.00 0.00 0.01 0.02 0.02 0.02 0.02 0.02 0.02 0.02 0.02 0.02 0.01 0.01 0.01 0.01 0.01 0.01
0.00 0.00 0.00 0.00 0.00 0.00 0.00 0.00 0.00 0.00 0.00 0.00 0.00 0.00 0.00 0.00 0.00 0.00 0.00 0.00 0.00 0.00 0.00 0.00 0.00 0.00 0.00 0.01 0.02 0.02 0.02 0.02 0.02 0.02 0.02 0.02 0.02 0.02 0.01 0.02 0.02 0.02 0.02 0.01
0.00 0.00 0.00 0.00 0.00 0.00 0.00 0.00 0.00 0.00 0.00 0.00 0.00 0.00 0.00 0.00 0.00 0.00 0.00 0.00 0.00 0.00 0.00 0.00 0.00 0.01 0.01 0.01 0.01 0.02 0.02 0.02 0.02 0.03 0.02 0.02 0.02 0.02 0.02 0.03 0.02 0.02 0.02 0.01
0.00 0.00 0.00 0.00 0.00 0.00 0.00 0.00 0.00 0.00 0.00 0.00 0.00 0.00 0.00 0.00 0.00 0.00 0.00 0.00 0.00 0.00 0.00 0.00 0.01 0.01 0.01 0.01 0.01 0.02 0.02 0.03 0.04 0.04 0.03 0.02 0.03 0.03 0.03 0.03 0.04 0.03 0.02 0.02
0.00 0.00 0.00 0.00 0.00 0.00 0.00 0.00 0.00 0.00 0.00 0.00 0.00 0.00 0.00 0.00 0.00 0.00 0.00 0.00 0.00 0.00 0.00 0.01 0.02 0.02 0.02 0.02 0.02 0.02 0.03 0.05 0.06 0.05 0.04 0.04 0.04 0.04 0.04 0.04 0.04 0.04 0.03 0.03
0.00 0.00 0.00 0.00 0.00 0.00 0.00 0.00 0.00 0.00 0.00 0.00 0.00 0.00 0.00 0.00 0.00 0.00 0.00 0.00 0.00 0.01 0.01 0.02 0.03 0.03 0.03 0.03 0.03 0.03 0.04 0.06 0.06 0.06 0.05 0.05 0.05 0.05 0.05 0.05 0.04 0.03 0.02 0.01
MSLP
1010.02 1010.79 1011.33 1011.62 1011.66 1011.50 1011.20 1010.84 1010.49 1010.21 1010.03 1009.97 1010.03 1010.19 1010.42 1010.70 1010.97 1011.23 1011.44 1011.59 1011.67 1011.69 1011.65 1011.57 1011.46 1011.36 1011.26 1011.18 1011.12 1011.07 1011.01 1010.95 1010.85 1010.72 1010.56 1010.38 1010.19 1010.01 1009.86 1009.76 1009.73 1009.78 1009.91 1010.13
1010.56 1011.11 1011.43 1011.52 1011.43 1011.21 1010.96 1010.74 1010.60 1010.58 1010.68 1010.89 1011.17 1011.49 1011.83 1012.14 1012.42 1012.64 1012.79 1012.86 1012.85 1012.76 1012.60 1012.37 1012.09 1011.80 1011.52 1011.27 1011.08 1010.94 1010.87 1010.84 1010.83 1010.82 1010.78 1010.69 1010.55 1010.37 1010.17 1009.97 1009.81 1009.72 1009.73 1009.84
1010.94 1011.26 1011.35 1011.26 1011.06 1010.85 1010.69 1010.66 1010.79 1011.06 1011.45 1011.91 1012.39 1012.84 1013.22 1013.52 1013.73 1013.86 1013.90 1013.87 1013.75 1013.57 1013.30 1012.97 1012.58 1012.18 1011.78 1011.43 1011.15 1010.97 1010.89 1010.90 1010.95 1011.02 1011.06 1011.04 1010.93 1010.74 1010.47 1010.18 1009.90 1009.68 1009.56 1009.58
1011.19 1011.26 1011.13 1010.90 1010.65 1010.49 1010.49 1010.70 1011.11 1011.68 1012.34 1013.03 1013.65 1014.17 1014.53 1014.75 1014.84 1014.82 1014.71 1014.55 1014.33 1014.06 1013.74 1013.37 1012.95 1012.50 1012.07 1011.69 1011.38 1011.18 1011.10 1011.12 1011.21 1011.31 1011.39 1011.39 1011.29 1011.07 1010.75 1010.37 1010.00 1009.67 1009.46 1009.38
1011.35 1011.18 1010.88 1010.54 1010.29 1010.23 1010.41 1010.86 1011.56 1012.40 1013.31 1014.16 1014.87 1015.39 1015.68 1015.76 1015.67 1015.47 1015.20 1014.90 1014.59 1014.27 1013.94 1013.58 1013.19 1012.79 1012.38 1012.02 1011.72 1011.53 1011.44 1011.46 1011.54 1011.64 1011.71 1011.70 1011.58 1011.33 1010.98 1010.55 1010.11 1009.72 1009.43 1009.29
1011.49 1011.11 1010.66 1010.27 1010.05 1010.10 1010.48 1011.16 1012.10 1013.17 1014.25 1015.21 1015.94 1016.40 1016.57 1016.48 1016.20 1015.80 1015.37 1014.94 1014.56 1014.23 1013.92 1013.63 1013.33 1013.01 1012.68 1012.38 1012.12 1011.93 1011.84 1011.83 1011.87 1011.94 1011.98 1011.94 1011.79 1011.53 1011.15 1010.72 1010.26 1009.84 1009.52 1009.32
1011.66 1011.11 1010.56 1010.14 1009.98 1010.15 1010.69 1011.56 1012.68 1013.89 1015.07 1016.05 1016.75 1017.12 1017.14 1016.87 1016.40 1015.83 1015.25 1014.73 1014.31 1013.99 1013.74 1013.54 1013.35 1013.15 1012.92 1012.70 1012.48 1012.31 1012.20 1012.14 1012.14 1012.15 1012.13 1012.06 1011.90 1011.63 1011.28 1010.86 1010.43 1010.03 1009.71 1009.49
1011.88 1011.22 1010.62 1010.21 1010.10 1010.37 1011.02 1012.00 1013.21 1014.49 1015.67 1016.62 1017.24 1017.48 1017.35 1016.92 1016.30 1015.60 1014.93 1014.36 1013.93 1013.64 1013.47 1013.37 1013.29 1013.19 1013.07 1012.91 1012.74 1012.57 1012.43 1012.33 1012.26 1012.21 1012.15 1012.05 1011.88 1011.64 1011.33 1010.97 1010.60 1010.26 1009.97 1009.76
1012.12 1011.43 1010.83 1010.46 1010.41 1010.74 1011.44 1012.45 1013.66 1014.90 1016.02 1016.87 1017.38 1017.49 1017.25 1016.70 1015.99 1015.22 1014.51 1013.93 1013.52 1013.27 1013.17 1013.15 1013.16 1013.15 1013.09 1012.98 1012.83 1012.65 1012.48 1012.33 1012.21 1012.10 1012.00 1011.89 1011.73 1011.53 1011.29 1011.02 1010.74 1010.47 1010.24 1010.06
1012.35 1011.71 1011.18 1010.87 1010.87 1011.23 1011.92 1012.89 1014.01 1015.14 1016.12 1016.84 1017.22 1017.23 1016.91 1016.31 1015.58 1014.81 1014.11 1013.56 1013.19 1012.98 1012.92 1012.94 1012.99 1013.01 1012.98 1012.88 1012.72 1012.53 1012.32 1012.13 1011.96 1011.82 1011.69 1011.57 1011.45 1011.30 1011.14 1010.96 1010.78 1010.60 1010.44 1010.29
1012.52 1012.02 1011.61 1011.40 1011.46 1011.82 1012.46 1013.32 1014.29 1015.24 1016.05 1016.62 1016.88 1016.81 1016.45 1015.88 1015.18 1014.47 1013.84 1013.34 1013.01 1012.83 1012.77 1012.79 1012.81 1012.81 1012.75 1012.62 1012.43 1012.20 1011.96 1011.72 1011.52 1011.35 1011.22 1011.11 1011.01 1010.92 1010.83 1010.74 1010.64 1010.55 1010.46 1010.36
1012.63 1012.32 1012.09 1012.00 1012.12 1012.47 1013.03 1013.75 1014.53 1015.29 1015.91 1016.32 1016.47 1016.36 1016.02 1015.50 1014.89 1014.29 1013.74 1013.31 1013.00 1012.82 1012.72 1012.67 1012.62 1012.54 1012.40 1012.20 1011.96 1011.68 1011.41 1011.15 1010.92 1010.74 1010.60 1010.50 1010.43 1010.38 1010.35 1010.32 1010.29 1010.27 1010.23 1010.18
1012.68 1012.61 1012.57 1012.63 1012.82 1013.16 1013.63 1014.20 1014.79 1015.34 1015.78 1016.04 1016.11 1015.99 1015.68 1015.25 1014.76 1014.27 1013.82 1013.44 1013.14 1012.92 1012.74 1012.58 1012.40 1012.19 1011.94 1011.66 1011.34 1011.02 1010.71 1010.44 1010.20 1010.01 1009.88 1009.78 1009.72 1009.68 1009.67 1009.68 1009.70 1009.72 1009.74 1009.73
1012.73 1012.88 1013.05 1013.26 1013.52 1013.86 1014.25 1014.68 1015.09 1015.45 1015.72 1015.86 1015.87 1015.73 1015.48 1015.15 1014.77 1014.38 1014.00 1013.66 1013.34 1013.04 1012.75 1012.44 1012.12 1011.77 1011.39 1011.00 1010.62 1010.25 1009.92 1009.64 1009.40 1009.21 1009.07 1008.96 1008.89 1008.85 1008.84 1008.85 1008.89 1008.94 1008.98 1009.02
1012.83 1013.19 1013.53 1013.87 1014.21 1014.54 1014.87 1015.17 1015.43 1015.63 1015.75 1015.79 1015.74 1015.60 1015.40 1015.14 1014.85 1014.54 1014.21 1013.86 1013.50 1013.10 1012.68 1012.22 1011.74 1011.24 1010.74 1010.26 1009.82 1009.43 1009.09 1008.80 1008.57 1008.38 1008.22 1008.09 1008.00 1007.93 1007.89 1007.89 1007.92 1007.97 1008.04 1008.11
1013.05 1013.55 1014.03 1014.46 1014.84 1015.17 1015.44 1015.64 1015.78 1015.84 1015.85 1015.79 1015.69 1015.55 1015.37 1015.16 1014.93 1014.65 1014.33 1013.96 1013.53 1013.03 1012.47 1011.87 1011.24 1010.62 1010.03 1009.48 1009.00 1008.59 1008.26 1007.98 1007.75 1007.55 1007.38 1007.22 1007.08 1006.97 1006.89 1006.86 1006.87 1006.92 1007.00 1007.09
1013.44 1014.00 1014.54 1015.01 1015.41 1015.72 1015.93 1016.05 1016.08 1016.04 1015.95 1015.82 1015.66 1015.50 1015.32 1015.13 1014.91 1014.64 1014.31 1013.88 1013.38 1012.78 1012.11 1011.39 1010.66 1009.94 1009.28 1008.70 1008.21 1007.80 1007.48 1007.21 1006.99 1006.78 1006.58 1006.39 1006.20 1006.04 1005.91 1005.84 1005.82 1005.86 1005.94 1006.06
1013.98 1014.53 1015.06 1015.51 1015.89 1016.15 1016.31 1016.35 1016.30 1016.18 1016.00 1015.81 1015.60 1015.40 1015.21 1015.00 1014.76 1014.47 1014.09 1013.62 1013.04 1012.36 1011.61 1010.81 1010.01 1009.26 1008.57 1007.97 1007.49 1007.09 1006.79 1006.53 1006.31 1006.08 1005.86 1005.62 1005.39 1005.17 1005.00 1004.88 1004.84 1004.86 1004.95 1005.07
1014.62 1015.09 1015.54 1015.93 1016.24 1016.44 1016.53 1016.51 1016.39 1016.20 1015.97 1015.71 1015.46 1015.22 1014.99 1014.75 1014.48 1014.14 1013.72 1013.20 1012.57 1011.84 1011.04 1010.21 1009.39 1008.62 1007.93 1007.35 1006.87 1006.50 1006.20 1005.94 1005.71 1005.46 1005.20 1004.92 1004.63 1004.37 1004.15 1004.00 1003.93 1003.95 1004.03 1004.17
1015.26 1015.61 1015.94 1016.23 1016.44 1016.56 1016.59 1016.51 1016.34 1016.10 1015.82 1015.53 1015.24 1014.96 1014.68 1014.40 1014.09 1013.72 1013.26 1012.70 1012.04 1011.30 1010.49 1009.65 1008.83 1008.08 1007.41 1006.84 1006.38 1006.01 1005.71 1005.43 1005.17 1004.88 1004.57 1004.24 1003.91 1003.61 1003.36 1003.18 1003.10 1003.10 1003.18 1003.32
1015.79 1015.99 1016.19 1016.36 1016.47 1016.51 1016.48 1016.35 1016.14 1015.88 1015.58 1015.26 1014.94 1014.63 1014.32 1014.01 1013.66 1013.25 1012.77 1012.19 1011.53 1010.79 1009.99 1009.18 1008.39 1007.66 1007.01 1006.45 1005.99 1005.61 1005.28 1004.96 1004.65 1004.31 1003.94 1003.56 1003.19 1002.84 1002.57 1002.37 1002.28 1002.28 1002.35 1002.49
1016.10 1016.17 1016.25 1016.30 1016.32 1016.30 1016.21 1016.06 1015.84 1015.57 1015.26 1014.94 1014.61 1014.28 1013.95 1013.60 1013.23 1012.80 1012.31 1011.73 1011.08 1010.36 1009.59 1008.81 1008.06 1007.35 1006.71 1006.15 1005.67 1005.25 1004.86 1004.49 1004.10 1003.69 1003.27 1002.83 1002.41 1002.04 1001.74 1001.53 1001.43 1001.43 1001.51 1001.63
1016.13 1016.10 1016.08 1016.05 1016.00 1015.93 1015.82 1015.66 1015.45 1015.20 1014.91 1014.59 1014.27 1013.93 1013.59 1013.23 1012.84 1012.40 1011.90 1011.33 1010.70 1010.01 1009.28 1008.53 1007.81 1007.11 1006.47 1005.90 1005.37 1004.89 1004.43 1003.97 1003.51 1003.02 1002.53 1002.04 1001.58 1001.18 1000.86 1000.65 1000.55 1000.54 1000.62 1000.75
1015.88 1015.79 1015.70 1015.62 1015.54 1015.45 1015.35 1015.21 1015.03 1014.81 1014.55 1014.26 1013.95 1013.62 1013.27 1012.90 1012.50 1012.05 1011.55 1011.00 1010.38 1009.72 1009.02 1008.30 1007.59 1006.90 1006.25 1005.63 1005.05 1004.50 1003.96 1003.42 1002.87 1002.30 1001.75 1001.21 1000.71 1000.29 999.97 999.75 999.65 999.65 999.73 999.86
1015.39 1015.26 1015.15 1015.06 1014.98 1014.91 1014.84 1014.74 1014.60 1014.43 1014.21 1013.96 1013.66 1013.34 1012.99 1012.61 1012.20 1011.74 1011.24 1010.69 1010.09 1009.44 1008.77 1008.07 1007.36 1006.67 1005.99 1005.33 1004.70 1004.07 1003.45 1002.83 1002.21 1001.58 1000.97 1000.40 999.88 999.44 999.11 998.90 998.80 998.81 998.90 999.04
1014.74 1014.61 1014.51 1014.43 1014.39 1014.36 1014.34 1014.30 1014.22 1014.10 1013.93 1013.70 1013.43 1013.11 1012.76 1012.36 1011.93 1011.46 1010.95 1010.39 1009.80 1009.16 1008.50 1007.81 1007.11 1006.40 1005.70 1005.00 1004.32 1003.63 1002.95 1002.27 1001.59 1000.92 1000.28 999.68 999.16 998.72 998.40 998.20 998.11 998.13 998.23 998.39
Thickness
5789 5770 5760 5771 5777 5778 5779 5775 5773 5787 5809 5802 5792 5791 5794 5798 5794 5787 5782 5779 5775 5771 5771 5772 5771 5767 5763 5759 5752 5746 5741 5734 5728 5728 5730 5728 5728 5732 5733 5735 5735 5736 5734 5733
5766 5762 5783 5794 5796 5790 5783 5773 5772 5784 5801 5795 5780 5772 5776 5778 5774 5771 5766 5762 5759 5758 5757 5757 5757 5755 5751 5749 5744 5741 5735 5732 5727 5724 5724 5724 5726 5727 5729 5731 5730 5731 5729 5728
5763 5776 5796 5792 5786 5782 5778 5772 5772 5774 5783 5783 5773 5753 5756 5759 5761 5759 5754 5750 5748 5747 5743 5742 5743 5742 5742 5739 5735 5734 5728 5725 5723 5721 5720 5719 5720 5721 5722 5722 5723 5725 5725 5723
5770 5783 5786 5781 5779 5781 5765 5784 5783 5776 5760 5744 5754 5728 5737 5739 5740 5740 5739 5737 5734 5733 5733 5733 5732 5732 5732 5729 5726 5722 5719 5717 5715 5714 5713 5712 5710 5709 5712 5714 5716 5718 5719 5718
5760 5774 5774 5771 5779 5783 5778 5788 5780 5771 5755 5739 5737 5724 5721 5727 5719 5720 5725 5726 5725 5724 5724 5722 5722 5722 5721 5719 5716 5712 5709 5706 5705 5705 5705 5704 5702 5702 5704 5706 5708 5709 5710 5711
5773 5786 5783 5781 5788 5790 5788 5776 5762 5746 5732 5716 5723 5714 5705 5710 5710 5712 5716 5718 5719 5717 5715 5714 5715 5714 5711 5707 5704 5700 5697 5694 5693 5693 5693 5692 5690 5690 5692 5693 5695 5698 5700 5701
5759 5773 5785 5789 5777 5781 5775 5739 5712 5708 5697 5700 5715 5705 5700 5712 5717 5716 5713 5713 5716 5712 5708 5706 5705 5703 5700 5697 5693 5689 5685 5682 5681 5680 5680 5679 5678 5678 5677 5678 5680 5682 5685 5688
5734 5740 5771 5781 5774 5763 5763 5742 5707 5694 5692 5696 5705 5698 5704 5714 5716 5715 5712 5710 5709 5704 5701 5699 5697 5694 5691 5687 5683 5678 5673 5669 5667 5666 5665 5664 5663 5663 5663 5664 5665 5667 5669 5673
5732 5738 5774 5783 5784 5772 5754 5743 5739 5713 5708 5694 5691 5697 5702 5707 5705 5704 5703 5701 5698 5696 5694 5691 5688 5684 5679 5674 5670 5665 5660 5656 5653 5651 5649 5648 5648 5647 5647 5649 5650 5652 5654 5657
5751 5742 5760 5774 5776 5769 5760 5749 5725 5709 5694 5684 5690 5689 5686 5692 5693 5695 5693 5689 5688 5686 5683 5680 5677 5672 5667 5662 5656 5650 5645 5641 5638 5636 5634 5633 5631 5631 5630 5631 5632 5635 5638 5640
5762 5741 5744 5753 5748 5746 5748 5739 5723 5705 5697 5682 5676 5682 5703 5695 5693 5689 5685 5683 5680 5677 5674 5671 5667 5663 5657 5651 5643 5636 5629 5624 5620 5617 5615 5614 5613 5612 5612 5613 5615 5617 5620 5623
5761 5735 5724 5737 5753 5759 5748 5738 5721 5700 5695 5688 5674 5676 5705 5696 5690 5684 5678 5675 5671 5668 5664 5659 5654 5648 5641 5634 5628 5621 5615 5609 5605 5601 5597 5594 5592 5590 5589 5591 5594 5597 5600 5604
5757 5729 5709 5714 5726 5740 5736 5735 5726 5708 5690 5680 5669 5673 5694 5686 5680 5675 5669 5663 5660 5656 5650 5644 5637 5630 5624 5618 5611 5605 5600 5594 5590 5585 5580 5577 5574 5571 5571 5571 5574 5576 5579 5583
5761 5727 5713 5702 5709 5725 5720 5723 5721 5705 5681 5675 5674 5672 5674 5672 5666 5662 5657 5652 5647 5642 5635 5628 5621 5615 5610 5604 5598 5592 5587 5582 5577 5572 5567 5564 5561 5559 5559 5558 5558 5559 5561 5564
5751 5727 5729 5727 5730 5727 5718 5716 5713 5701 5693 5676 5673 5666 5661 5660 5657 5652 5647 5642 5636 5630 5624 5617 5609 5603 5596 5591 5586 5581 5577 5573 5569 5565 5560 5558 5556 5553 5551 5549 5549 5549 5549 5552
5742 5728 5723 5718 5727 5721 5711 5710 5707 5699 5691 5682 5672 5660 5661 5658 5652 5645 5638 5633 5625 5618 5612 5605 5598 5591 5585 5580 5577 5573 5570 5568 5564 5560 5558 5556 5553 5550 5547 5546 5544 5543 5542 5543
5735 5725 5712 5704 5716 5714 5690 5696 5694 5687 5680 5671 5655 5652 5653 5647 5642 5635 5628 5620 5611 5605 5599 5593 5587 5581 5576 5573 5570 5567 5566 5563 5559 5556 5554 5551 5549 5546 5544 5543 5541 5539 5538 5538
5734 5720 5703 5697 5697 5684 5690 5703 5695 5681 5669 5664 5657 5651 5645 5638 5634 5630 5621 5610 5602 5596 5591 5585 5579 5575 5571 5568 5564 5561 5558 5554 5551 5548 5546 5544 5541 5539 5538 5536 5535 5534 5533 5533
5739 5722 5700 5685 5681 5684 5690 5693 5687 5674 5661 5659 5651 5644 5640 5634 5626 5620 5614 5604 5594 5587 5581 5576 5571 5567 5562 5557 5553 5548 5544 5540 5536 5534 5532 5531 5530 5529 5528 5527 5527 5527 5527 5527
5729 5717 5697 5684 5678 5670 5676 5690 5692 5675 5652 5653 5645 5636 5629 5620 5602 5601 5603 5594 5586 5580 5573 5567 5561 5554 5548 5543 5537 5531 5528 5524 5521 5520 5518 5517 5516 5516 5517 5518 5519 5520 5520 5522
5710 5699 5687 5678 5672 5673 5681 5687 5678 5647 5640 5645 5639 5629 5620 5607 5598 5598 5595 5588 5579 5572 5564 5557 5549 5542 5535 5530 5524 5518 5513 5510 5508 5506 5504 5503 5502 5502 5504 5506 5509 5511 5513 5515
5700 5688 5680 5671 5661 5662 5682 5675 5657 5645 5646 5640 5633 5625 5616 5608 5602 5595 5587 5578 5570 5562 5555 5548 5540 5532 5526 5519 5511 5506 5501 5498 5495 5492 5490 5489 5489 5490 5494 5495 5498 5501 5504 5507
5703 5695 5683 5675 5669 5675 5677 5668 5661 5651 5643 5637 5629 5622 5614 5606 5597 5589 5579 5570 5562 5554 5547 5539 5531 5525 5518 5510 5502 5497 5495 5490 5486 5483 5480 5479 5479 5480 5481 5484 5488 5492 5496 5500
5708 5707 5691 5680 5678 5676 5670 5667 5661 5654 5646 5639 5631 5621 5612 5601 5592 5582 5572 5564 5556 5549 5541 5534 5526 5519 5513 5506 5499 5492 5489 5484 5479 5476 5474 5473 5472 5473 5474 5476 5480 5484 5490 5494
5706 5700 5685 5677 5678 5674 5669 5664 5659 5653 5645 5637 5628 5619 5608 5597 5586 5576 5567 5559 5552 5546 5538 5530 5522 5515 5509 5503 5497 5491 5486 5481 5477 5474 5472 5471 5469 5469 5470 5472 5476 5481 5486 5491
5700 5690 5678 5669 5671 5664 5660 5662 5658 5649 5640 5632 5622 5613 5603 5592 5581 5572 5563 5556 5550 5544 5537 5529 5521 5513 5507 5502 5496 5491 5486 5481 5477 5474 5472 5471 5469 5469 5469 5471 5475 5480 5485 5491